Location: St. Louis
(38.6270°N, 90.1994°W)
Time: 08:20:12
(UTC-06:00)

SR - Pass Details

Date: 30 November 2021
Orbit: 582 x 872 km, 66.7° (Epoch: 21 January)

Event Time Altitude Azimuth Distance (km) Brightness Sun altitude
Rises 23:17:37 0° 190° (S) 3,060 - -71.8°
Reaches altitude 10° 23:20:07 10° 183° (S) 2,099 - -72.0°
Maximum altitude 23:24:32 41° 113° (ESE) 925 - -72.4°
Drops below altitude 10° 23:28:42 10° 43° (NE) 1,972 - -72.6°
Sets 23:30:59 0° 37° (NE) 2,853 - -72.7°
